Location: Okie-Tex Star Party
(36.8978°N, 102.9520°W)
Time: 08:38:26
(UTC-05:00)

Amateur Radio Satellites - All Passes

Search period start: 27 April 2015 08:08
Search period end: 28 April 2015 08:08
Location: Okie-Tex Star Party, 36.8978°N, 102.9520°W

Satellite Date Start Highest point End Downlink Frequencies (MHz)
Time Altitude Azimuth
AUBIESAT-1 27 Apr 08:09:04 08:13:07 27° 261° (W) 08:17:08 437.475
O/OREOS (USA 219) 27 Apr 08:09:04 08:11:54 17° 57° (ENE) 08:14:51 437.305
Cosmos 2499 27 Apr 08:30:29 08:36:03 22° 277° (W) 08:41:05 435.465 / 435.565
PRISM 27 Apr 08:39:03 08:42:31 24° 264° (W) 08:45:53 437.425
AO-7 27 Apr 08:51:32 08:53:07 10° 311° (NW) 08:54:07 29.400- 29.500
CUBESAT XI-V 27 Apr 08:52:00 08:54:27 14° 270° (W) 08:56:39 437.345
BRITE-PL 27 Apr 09:00:41 09:04:14 19° 92° (E) 09:08:08 437.365/2234.400
PCSat 27 Apr 09:23:20 09:28:43 69° 298° (WNW) 09:34:09 145.827
CUTE-I 27 Apr 09:36:52 09:40:27 18° 295° (WNW) 09:43:51 437.470
STRAND 1 27 Apr 09:41:45 09:43:01 11° 272° (W) 09:43:54 437.568
O/OREOS (USA 219) 27 Apr 09:47:20 09:51:36 42° 254° (WSW) 09:55:47 437.305
Cubesat XI-IV 27 Apr 09:47:38 09:50:32 14° 296° (WNW) 09:53:11 437.490
COMPASS 1 27 Apr 09:49:52 09:51:50 13° 90° (E) 09:54:02 437.405
GOMX 1 27 Apr 10:16:10 10:21:23 68° 101° (E) 10:26:50 467.674
SEEDS 27 Apr 10:16:39 10:20:33 36° 97° (E) 10:24:26 437.485
Oscar 11 27 Apr 10:17:36 10:18:29 11° 89° (E) 10:19:40 145.826/435.025
CANX-2 27 Apr 10:27:52 10:32:08 69° 101° (E) 10:36:21 2200.000
AAUSAT CUBESAT 2 27 Apr 10:29:28 10:33:17 34° 97° (E) 10:37:06 437.432
HO-68 27 Apr 10:34:14 10:41:24 70° 103° (ESE) 10:48:32 435.675
Cosmos 2491 27 Apr 10:36:20 10:44:54 53° 77° (ENE) 10:53:30 435.465 / 435.565
CUTE 1.7 + AOD 2 27 Apr 10:36:42 10:41:00 79° 101° (E) 10:45:14 437.475
BRITE-PL 27 Apr 10:37:56 10:42:58 50° 286° (WNW) 10:48:17 437.365/2234.400
DOVE 4 27 Apr 10:44:08 10:49:20 86° 98° (E) 10:54:41 437.250
TIGRISAT 27 Apr 10:58:56 11:02:40 27° 70° (ENE) 11:06:34 435.000
CUBEBUG 2 27 Apr 11:02:43 11:07:05 35° 96° (E) 11:11:26 437.445
UNISAT 6 27 Apr 11:03:50 11:07:47 31° 71° (ENE) 11:11:54 437.425
PCSat 27 Apr 11:11:53 11:13:16 11° 319° (NW) 11:14:23 145.827
DUCHIFAT 1 27 Apr 11:13:11 11:15:47 17° 68° (ENE) 11:18:34 145.980
POLYITAN 1 27 Apr 11:14:13 11:17:04 18° 69° (ENE) 11:20:02 437.675
CINEMA 3 27 Apr 11:15:16 11:20:19 88° 277° (W) 11:25:22 145.822/145.860
COMPASS 1 27 Apr 11:23:49 11:27:48 42° 286° (WNW) 11:31:44 437.405
UWE-3 27 Apr 11:24:52 11:29:25 49° 99° (E) 11:33:56 435.000/436.395/437.385
DELFI C3 27 Apr 11:28:09 11:32:08 57° 100° (E) 11:36:05 145.870
FUNcube-1 27 Apr 11:29:37 11:33:59 42° 98° (E) 11:38:18 145.935
QB50P1 27 Apr 11:30:53 11:34:25 27° 71° (ENE) 11:38:02 145.935-145.965
UKube-1 27 Apr 11:32:34 11:36:01 23° 95° (E) 11:39:32 .
HUMSAT D 27 Apr 11:36:34 11:39:58 23° 94° (E) 11:43:27 437.325/437.525
YUBILEINY 27 Apr 11:37:46 11:46:22 62° 92° (E) 11:55:02 435.215
ANTELSAT 27 Apr 11:45:17 11:49:50 90° 239° (WSW) 11:54:30 437.575/2403.000
BEESAT 3 27 Apr 11:49:18 11:52:44 25° 51° (NE) 11:56:10 437.485
Oscar 11 27 Apr 11:50:50 11:55:06 56° 286° (WNW) 11:59:20 145.826/435.025
BEESAT 2 27 Apr 11:53:10 11:56:30 24° 50° (NE) 11:59:52 435.950
SEEDS 27 Apr 11:53:17 11:56:06 17° 291° (WNW) 11:58:44 437.485
ZACube-1 27 Apr 11:55:36 12:00:14 86° 102° (ESE) 12:04:48 437.345
GOMX 1 27 Apr 11:56:08 11:59:04 15° 293° (WNW) 12:01:48 467.674
QB50P2 27 Apr 11:56:59 12:01:06 57° 75° (ENE) 12:05:17 145.880/145.840
AAUSAT CUBESAT 2 27 Apr 12:05:53 12:08:41 17° 291° (WNW) 12:11:19 437.432
VELOX 1 27 Apr 12:06:22 12:10:09 27° 96° (E) 12:14:00 145.980
50 SAT 27 Apr 12:06:48 12:10:20 29° 96° (E) 12:13:52 437.505
ISS 27 Apr 12:07:44 12:10:57 72° 137° (SE) 12:14:12 145.825
CUBEBUG 1 27 Apr 12:07:45 12:09:39 13° 90° (E) 12:11:46 437.445
NANOSAT C BR1 27 Apr 12:13:43 12:17:55 89° 80° (E) 12:22:09 145.865
POPSAT HIP 1 27 Apr 12:17:47 12:21:59 81° 258° (WSW) 12:26:14 437.405
SO-50 27 Apr 12:22:30 12:27:08 86° 301° (WNW) 12:31:57 436.795
HO-68 27 Apr 12:23:17 12:28:33 22° 299° (WNW) 12:33:33 435.675
AISAT 27 Apr 12:24:38 12:28:56 46° 99° (E) 12:33:15 437.250
DOVE 4 27 Apr 12:24:52 12:26:31 11° 295° (WNW) 12:27:51 437.250
DX 1 27 Apr 12:27:30 12:31:52 73° 284° (WNW) 12:36:13 434.975-435.025
AIST 1 27 Apr 12:30:31 12:34:33 40° 79° (E) 12:38:37
BUGSAT 1 27 Apr 12:32:32 12:36:33 79° 259° (W) 12:40:36 437.445
Cosmos 2491 27 Apr 12:33:55 12:41:24 31° 274° (W) 12:48:38 435.465 / 435.565
TIGRISAT 27 Apr 12:35:33 12:39:23 26° 266° (W) 12:43:12 435.000
CUBEBUG 2 27 Apr 12:39:51 12:43:34 22° 291° (WNW) 12:47:10 437.445
UNISAT 6 27 Apr 12:41:02 12:44:38 22° 267° (W) 12:48:11 437.425
DUCHIFAT 1 27 Apr 12:47:29 12:51:21 36° 262° (W) 12:55:15 145.980
POLYITAN 1 27 Apr 12:48:55 12:52:45 33° 263° (W) 12:56:36 437.675
UWE-3 27 Apr 13:02:40 13:05:35 16° 293° (WNW) 13:08:17 435.000/436.395/437.385
Cosmos 2504 27 Apr 13:03:11 13:08:47 20° 82° (E) 13:14:50 435.465 / 435.565
AIST 2 27 Apr 13:04:57 13:08:58 41° 55° (NE) 13:12:56 435.215
DELFI C3 27 Apr 13:06:19 13:06:50 10° 294° (WNW) 13:07:07 145.870
FUNcube-1 27 Apr 13:06:55 13:09:59 17° 292° (WNW) 13:12:53 145.935
QB50P1 27 Apr 13:07:01 13:10:18 21° 266° (W) 13:13:30 145.935-145.965
UKube-1 27 Apr 13:08:28 13:12:08 27° 290° (WNW) 13:15:44 .
ESTCUBE 1 27 Apr 13:10:05 13:14:35 81° 102° (ESE) 13:19:04 437.505/2401.250
HUMSAT D 27 Apr 13:12:02 13:15:43 27° 289° (WNW) 13:19:18 437.325/437.525
SPROUT 27 Apr 13:19:42 13:23:03 22° 94° (E) 13:26:30 437.525
BEESAT 3 27 Apr 13:27:17 13:30:41 25° 247° (WSW) 13:33:58 437.485
BEESAT 2 27 Apr 13:31:04 13:34:37 28° 247° (WSW) 13:38:04 435.950
YUBILEINY 27 Apr 13:36:34 13:43:52 27° 292° (WNW) 13:50:52 435.215
50 SAT 27 Apr 13:42:05 13:44:57 18° 291° (WNW) 13:47:41 437.505
CUBEBUG 1 27 Apr 13:42:07 13:46:20 48° 286° (WNW) 13:50:33 437.445
VELOX 1 27 Apr 13:43:01 13:46:37 24° 290° (WNW) 13:50:09 145.980
ISS 27 Apr 13:45:33 13:47:38 16° 335° (NNW) 13:49:42 145.825
Oscar 19 27 Apr 13:51:53 13:56:24 32° 70° (ENE) 14:01:01 437.125/150
AISAT 27 Apr 14:02:33 14:05:11 15° 293° (WNW) 14:07:39 437.250
SO-50 27 Apr 14:06:30 14:08:31 12° 320° (NW) 14:10:21 436.795
AIST 1 27 Apr 14:09:44 14:11:53 13° 272° (W) 14:13:50
SWISSCUBE 27 Apr 14:15:45 14:17:16 12° 89° (E) 14:19:06 437.505
TISAT 1 27 Apr 14:16:44 14:21:01 82° 101° (E) 14:25:17 437.305
RS-15 27 Apr 14:27:31 14:37:30 46° 110° (ESE) 14:47:47 29.354- 29.394
ITAMSAT 1 27 Apr 14:31:32 14:35:33 24° 68° (ENE) 14:39:42 435.822/435.867
AIST 2 27 Apr 14:44:38 14:47:15 16° 250° (WSW) 14:49:40 435.215
Cosmos 2504 27 Apr 14:52:29 15:01:24 80° 278° (W) 15:10:13 435.465 / 435.565
SPROUT 27 Apr 14:55:25 14:59:09 28° 289° (WNW) 15:02:47 437.525
Gurwin Techsat 1B 27 Apr 15:11:51 15:16:57 50° 73° (ENE) 15:22:06 435.225
ITUPSAT 1 27 Apr 15:18:33 15:23:12 53° 100° (E) 15:27:51 437.325
Oscar 19 27 Apr 15:31:26 15:35:47 27° 265° (W) 15:40:05 437.125/150
JAS-2 27 Apr 15:39:37 15:45:04 22° 64° (ENE) 15:50:40 435.910
BEESAT 27 Apr 15:48:00 15:52:46 73° 285° (WNW) 15:57:30 436.000
SWISSCUBE 27 Apr 15:50:56 15:55:38 62° 286° (WNW) 16:00:19 437.505
AO-7 27 Apr 15:58:29 16:05:39 36° 63° (ENE) 16:13:01 29.400- 29.500
STARS 27 Apr 16:01:08 16:03:47 16° 92° (E) 16:06:38 437.465
GONETS M04 27 Apr 16:04:37 16:09:46 18° 81° (E) 16:15:28
ITAMSAT 1 27 Apr 16:10:05 16:14:53 37° 262° (W) 16:19:39 435.822/435.867
HORYU 2 27 Apr 16:27:41 16:32:03 55° 74° (ENE) 16:36:29 437.375
VERMONT LUNAR 27 Apr 16:38:17 16:41:31 45° 154° (SSE) 16:44:46 437.305
RS-15 27 Apr 16:39:21 16:49:50 49° 311° (NW) 17:00:30 29.354- 29.394
KKS-1 27 Apr 16:46:31 16:51:03 88° 99° (E) 16:55:32 437.445
Cosmos 2504 27 Apr 16:51:25 16:56:25 15° 299° (WNW) 17:00:44 435.465 / 435.565
Gurwin Techsat 1B 27 Apr 16:53:39 16:57:17 18° 269° (W) 17:00:41 435.225
ITUPSAT 1 27 Apr 16:57:55 17:00:43 15° 294° (WNW) 17:03:18 437.325
JAS-2 27 Apr 17:21:36 17:29:29 77° 258° (WSW) 17:37:08 435.910
PHONESAT 2.4 27 Apr 17:27:39 17:31:00 38° 152° (SSE) 17:34:23 2401.200-2431.200
MOZHAYETS 4 27 Apr 17:29:54 17:32:34 16° 91° (E) 17:35:26
STARS 27 Apr 17:36:16 17:40:28 41° 287° (WNW) 17:44:37 437.465
CUSAT 1 27 Apr 17:44:59 17:48:15 33° 90° (E) 17:52:31 437.405
AO-7 27 Apr 17:50:18 17:58:15 49° 259° (W) 18:06:12 29.400- 29.500
Cubesat XI-IV 27 Apr 17:50:27 17:51:18 11° 62° (ENE) 17:52:30 437.490
GONETS M04 27 Apr 17:56:54 18:05:41 81° 278° (W) 18:14:34
HORYU 2 27 Apr 18:07:17 18:09:08 12° 270° (W) 18:10:42 437.375
PCSat 27 Apr 18:13:32 18:18:52 57° 59° (ENE) 18:24:12 145.827
VERMONT LUNAR 27 Apr 18:15:39 18:18:59 53° 350° (N) 18:22:18 437.305
ISS 27 Apr 18:37:06 18:40:05 32° 34° (NNE) 18:43:03 145.825
DANDE 27 Apr 18:38:32 18:41:51 72° 281° (W) 18:46:18 436.750
RS-15 27 Apr 18:59:09 19:06:04 17° 342° (NNW) 19:12:51 29.354- 29.394
PHONESAT 2.4 27 Apr 19:05:38 19:09:11 60° 347° (NNW) 19:12:44 2401.200-2431.200
MOZHAYETS 4 27 Apr 19:05:43 19:10:04 43° 287° (WNW) 19:14:22
Cosmos 2499 27 Apr 19:07:39 19:16:10 55° 91° (E) 19:24:32 435.465 / 435.565
JAS-2 27 Apr 19:12:16 19:15:39 12° 275° (W) 19:18:22 435.910
CUBESAT XI-V 27 Apr 19:12:33 19:15:06 15° 91° (E) 19:17:52 437.345
M-CUBED/EXP-1 PRIME 27 Apr 19:15:05 19:15:31 10° 92° (E) 19:16:12 437.505
CUTE-I 27 Apr 19:15:08 19:20:24 71° 75° (ENE) 19:25:44 437.470
Cubesat XI-IV 27 Apr 19:25:23 19:30:43 89° 85° (E) 19:36:06 437.490
CUSAT 1 27 Apr 19:29:05 19:31:29 15° 298° (WNW) 19:34:03 437.405
AUBIESAT-1 27 Apr 19:52:50 19:56:15 27° 99° (E) 19:59:28 437.475
VERMONT LUNAR 27 Apr 19:53:27 19:56:44 45° 6° (N) 20:00:00 437.305
PCSat 27 Apr 19:58:23 20:01:52 17° 254° (WSW) 20:05:06 145.827
GONETS M04 27 Apr 19:59:29 20:04:16 15° 300° (WNW) 20:08:25
STRAND 1 27 Apr 20:11:20 20:15:47 30° 96° (E) 20:20:16 437.568
BRITE-PL 27 Apr 20:11:43 20:13:20 12° 66° (ENE) 20:15:12 437.365/2234.400
ISS 27 Apr 20:13:43 20:16:19 22° 229° (SW) 20:18:50 145.825
PRISM 27 Apr 20:22:56 20:26:55 51° 100° (E) 20:30:54 437.425
PHONESAT 2.4 27 Apr 20:44:13 20:47:42 46° 4° (N) 20:51:11 2401.200-2431.200
M-CUBED/EXP-1 PRIME 27 Apr 20:46:55 20:50:53 48° 291° (WNW) 20:54:31 437.505
CUBESAT XI-V 27 Apr 20:48:25 20:52:50 46° 287° (WNW) 20:57:14 437.345
SO-50 27 Apr 20:56:13 21:01:00 46° 55° (NE) 21:05:44 436.795
CUTE-I 27 Apr 20:58:50 21:01:07 12° 271° (W) 21:03:03 437.470
HO-68 27 Apr 21:00:19 21:06:53 41° 67° (ENE) 21:13:34 435.675
Cosmos 2499 27 Apr 21:02:00 21:09:43 31° 289° (WNW) 21:17:03 435.465 / 435.565
SEEDS 27 Apr 21:07:11 21:10:15 20° 70° (ENE) 21:13:27 437.485
RS-15 27 Apr 21:18:00 21:24:49 17° 18° (NNE) 21:32:07 29.354- 29.394
CANX-2 27 Apr 21:18:35 21:22:31 36° 73° (ENE) 21:26:30 2200.000
AAUSAT CUBESAT 2 27 Apr 21:18:54 21:21:47 19° 70° (ENE) 21:24:48 437.432
GOMX 1 27 Apr 21:22:52 21:26:55 50° 74° (ENE) 21:31:12 467.674
CUTE 1.7 + AOD 2 27 Apr 21:27:15 21:31:16 41° 74° (ENE) 21:35:21 437.475
AUBIESAT-1 27 Apr 21:27:57 21:30:53 19° 297° (WNW) 21:33:34 437.475
VERMONT LUNAR 27 Apr 21:30:56 21:34:19 69° 203° (SSW) 21:37:40 437.305
BRITE-PL 27 Apr 21:47:28 21:51:29 48° 262° (W) 21:55:39 437.365/2234.400
DOVE 4 27 Apr 21:47:57 21:52:09 64° 75° (ENE) 21:56:36 437.250
STRAND 1 27 Apr 21:50:34 21:54:55 28° 291° (WNW) 21:59:11 437.568
YUBILEINY 27 Apr 21:51:39 21:58:33 26° 68° (ENE) 22:05:41 435.215
CUBEBUG 2 27 Apr 21:59:27 22:02:45 22° 69° (ENE) 22:06:16 437.445
PRISM 27 Apr 22:00:28 22:01:59 12° 294° (WNW) 22:03:18 437.425
COMPASS 1 27 Apr 22:12:14 22:16:30 87° 263° (W) 22:20:46 437.405
DELFI C3 27 Apr 22:13:50 22:17:12 26° 71° (ENE) 22:20:39 145.870
CINEMA 3 27 Apr 22:14:52 22:19:09 63° 75° (ENE) 22:23:40 145.822/145.860
O/OREOS (USA 219) 27 Apr 22:18:22 22:22:13 28° 104° (ESE) 22:26:08 437.305
UWE-3 27 Apr 22:20:06 22:23:52 29° 71° (ENE) 22:27:48 435.000/436.395/437.385
PHONESAT 2.4 27 Apr 22:22:31 22:26:07 81° 200° (SSW) 22:29:41 2401.200-2431.200
FUNcube-1 27 Apr 22:23:37 22:27:08 25° 70° (ENE) 22:30:49 145.935
UKube-1 27 Apr 22:26:16 22:28:48 16° 67° (ENE) 22:31:32 .
HUMSAT D 27 Apr 22:27:46 22:29:37 13° 67° (ENE) 22:31:41 437.325/437.525
SO-50 27 Apr 22:37:41 22:41:15 19° 250° (WSW) 22:44:37 436.795
SEEDS 27 Apr 22:42:05 22:45:53 30° 264° (W) 22:49:40 437.485
Oscar 11 27 Apr 22:42:56 22:47:17 82° 77° (ENE) 22:51:40 145.826/435.025
HO-68 27 Apr 22:48:11 22:54:41 35° 264° (W) 23:01:06 435.675
ZACube-1 27 Apr 22:49:13 22:53:25 50° 74° (ENE) 22:57:45 437.345
50 SAT 27 Apr 22:51:22 22:53:19 14° 68° (ENE) 22:55:28 437.505
AAUSAT CUBESAT 2 27 Apr 22:53:23 22:57:13 32° 264° (W) 23:01:00 437.432
CANX-2 27 Apr 22:55:44 22:58:36 17° 268° (W) 23:01:20 2200.000
VELOX 1 27 Apr 23:02:34 23:05:39 19° 68° (ENE) 23:08:51 145.980
GOMX 1 27 Apr 23:04:10 23:05:34 11° 272° (W) 23:06:43 467.674
CUTE 1.7 + AOD 2 27 Apr 23:04:55 23:07:26 15° 269° (W) 23:09:47 437.475
VERMONT LUNAR 27 Apr 23:09:37 23:11:24 13° 216° (SW) 23:13:05 437.305
AISAT 27 Apr 23:20:34 23:24:24 31° 71° (ENE) 23:28:20 437.250
DX 1 27 Apr 23:20:39 23:24:57 72° 76° (ENE) 23:29:18 434.975-435.025
RS-15 27 Apr 23:30:17 23:41:15 48° 48° (NE) 23:52:48 29.354- 29.394
Cosmos 2491 27 Apr 23:34:11 23:42:43 65° 93° (E) 23:51:24 435.465 / 435.565
CUBEBUG 2 27 Apr 23:35:25 23:39:18 30° 265° (W) 23:43:16 437.445
ANTELSAT 27 Apr 23:40:24 23:44:07 23° 94° (E) 23:47:51 437.575/2403.000
QB50P2 27 Apr 23:46:55 23:48:13 11° 90° (E) 23:49:47 145.880/145.840
YUBILEINY 27 Apr 23:47:28 23:56:03 61° 268° (W) 00:04:31 435.215
DELFI C3 27 Apr 23:49:10 23:52:20 21° 266° (W) 23:55:25 145.870
UWE-3 27 Apr 23:57:00 00:00:27 22° 267° (W) 00:03:52 435.000/436.395/437.385
O/OREOS (USA 219) 27 Apr 23:57:46 00:01:37 25° 299° (WNW) 00:05:22 437.305
FUNcube-1 27 Apr 23:59:44 00:03:24 25° 266° (W) 00:07:04 145.935
UKube-1 28 Apr 00:00:35 00:04:40 40° 261° (W) 00:08:44 .
HUMSAT D 28 Apr 00:00:52 00:04:58 49° 261° (W) 00:09:09 437.325/437.525
PHONESAT 2.4 28 Apr 00:01:34 00:04:02 17° 214° (SW) 00:06:25 2401.200-2431.200
NANOSAT C BR1 28 Apr 00:02:03 00:04:49 17° 92° (E) 00:07:45 145.865
POPSAT HIP 1 28 Apr 00:06:08 00:09:13 19° 93° (E) 00:12:24 437.405
ESTCUBE 1 28 Apr 00:07:22 00:11:46 55° 74° (ENE) 00:16:11 437.505/2401.250
SPROUT 28 Apr 00:13:06 00:15:09 14° 67° (ENE) 00:17:25 437.525
BUGSAT 1 28 Apr 00:17:55 00:20:41 18° 93° (E) 00:23:36 437.445
50 SAT 28 Apr 00:24:01 00:27:48 41° 262° (W) 00:31:38 437.505
ZACube-1 28 Apr 00:28:07 00:30:10 13° 271° (W) 00:32:00 437.345
TIGRISAT 28 Apr 00:28:41 00:33:25 79° 103° (ESE) 00:38:02 435.000
UNISAT 6 28 Apr 00:34:08 00:38:52 88° 281° (W) 00:43:29 437.425
DUCHIFAT 1 28 Apr 00:34:14 00:38:16 40° 98° (E) 00:42:19 145.980
CUBEBUG 1 28 Apr 00:35:42 00:40:01 79° 257° (WSW) 00:44:21 437.445
POLYITAN 1 28 Apr 00:36:14 00:40:23 45° 99° (E) 00:44:32 437.675
VELOX 1 28 Apr 00:38:00 00:42:01 33° 263° (W) 00:46:00 145.980
Cosmos 2504 28 Apr 00:49:36 00:56:26 32° 71° (ENE) 01:03:01 435.465 / 435.565
QB50P1 28 Apr 00:53:11 00:57:29 72° 101° (ESE) 01:01:46 145.935-145.965
AISAT 28 Apr 00:57:46 01:01:05 20° 266° (W) 01:04:17 437.250
AIST 1 28 Apr 00:57:57 01:01:34 27° 91° (E) 01:05:14
TISAT 1 28 Apr 01:06:44 01:10:41 43° 74° (ENE) 01:14:42 437.305
ANTELSAT 28 Apr 01:16:46 01:20:55 31° 289° (WNW) 01:24:56 437.575/2403.000
QB50P2 28 Apr 01:20:18 01:24:30 52° 286° (WNW) 01:28:41 145.880/145.840
SWISSCUBE 28 Apr 01:20:57 01:22:27 12° 64° (ENE) 01:24:15 437.505
JUGNU 28 Apr 01:27:58 01:30:16 12° 171° (S) 01:32:37 437.505
Cosmos 2491 28 Apr 01:33:24 01:40:24 25° 293° (WNW) 01:47:05 435.465 / 435.565
NANOSAT C BR1 28 Apr 01:36:53 01:40:49 35° 288° (WNW) 01:44:41 145.865
POPSAT HIP 1 28 Apr 01:41:20 01:45:09 31° 288° (WNW) 01:48:57 437.405
RS-15 28 Apr 01:42:47 01:53:56 52° 249° (WSW) 02:05:20 29.354- 29.394
SPROUT 28 Apr 01:46:46 01:50:53 46° 261° (W) 01:55:02 437.525
ESTCUBE 1 28 Apr 01:47:14 01:49:03 12° 270° (W) 01:50:36 437.505/2401.250
BUGSAT 1 28 Apr 01:52:30 01:56:15 33° 288° (WNW) 02:00:00 437.445
Oscar 19 28 Apr 02:07:14 02:09:34 13° 89° (E) 02:12:13 437.125/150
TIGRISAT 28 Apr 02:09:04 02:09:33 10° 296° (WNW) 02:09:44 435.000
DUCHIFAT 1 28 Apr 02:11:08 02:13:48 16° 292° (WNW) 02:16:17 145.980
POLYITAN 1 28 Apr 02:13:30 02:15:57 15° 293° (WNW) 02:18:14 437.675
ITUPSAT 1 28 Apr 02:23:06 02:27:40 47° 73° (ENE) 02:32:17 437.325
AIST 1 28 Apr 02:35:59 02:39:15 20° 286° (WNW) 02:42:24
Cosmos 2504 28 Apr 02:42:42 02:50:03 43° 271° (W) 02:56:51 435.465 / 435.565
TISAT 1 28 Apr 02:44:41 02:46:46 13° 269° (W) 02:48:38 437.305
BEESAT 28 Apr 02:52:02 02:56:49 83° 255° (WSW) 03:01:37 436.000
SWISSCUBE 28 Apr 02:55:01 02:59:48 71° 258° (WSW) 03:04:35 437.505
STARS 28 Apr 02:57:40 02:58:54 11° 65° (ENE) 03:00:25 437.465
AIST 2 28 Apr 03:02:13 03:04:42 16° 110° (ESE) 03:07:21 435.215
JUGNU 28 Apr 03:15:20 03:18:30 15° 181° (S) 03:21:39 437.505
BEESAT 3 28 Apr 03:17:14 03:21:19 82° 302° (WNW) 03:25:27 437.485
BEESAT 2 28 Apr 03:21:58 03:26:04 89° 289° (WNW) 03:30:14 435.950
SRMSAT 28 Apr 03:30:23 03:33:00 13° 173° (S) 03:35:41 437.500
Gurwin Techsat 1B 28 Apr 03:30:57 03:35:08 24° 94° (E) 03:39:27 435.225
DANDE 28 Apr 03:37:36 03:41:46 16° 64° (ENE) 03:46:42 436.750
KKS-1 28 Apr 03:42:20 03:46:41 59° 74° (ENE) 03:51:04 437.445
Oscar 19 28 Apr 03:44:18 03:49:28 63° 285° (WNW) 03:54:35 437.125/150
ITUPSAT 1 28 Apr 04:02:53 04:05:53 16° 269° (W) 04:08:40 437.325
GONETS M04 28 Apr 04:10:18 04:18:41 46° 75° (ENE) 04:27:05
CUSAT 1 28 Apr 04:21:56 04:29:14 41° 74° (ENE) 04:37:01 437.405
HORYU 2 28 Apr 04:23:14 04:25:05 13° 90° (E) 04:27:12 437.375
ITAMSAT 1 28 Apr 04:24:41 04:29:54 88° 278° (W) 04:35:06 435.822/435.867
STARS 28 Apr 04:30:33 04:34:53 62° 259° (W) 04:39:17 437.465
MOZHAYETS 4 28 Apr 04:30:51 04:32:43 13° 66° (ENE) 04:34:49
JAS-2 28 Apr 04:37:37 04:40:35 15° 86° (E) 04:43:45 435.910
AIST 2 28 Apr 04:38:54 04:42:58 43° 305° (NW) 04:47:05 435.215
Cosmos 2499 28 Apr 05:05:08 05:08:25 14° 61° (ENE) 05:12:08 435.465 / 435.565
JUGNU 28 Apr 05:05:13 05:06:43 11° 191° (S) 05:08:08 437.505
Gurwin Techsat 1B 28 Apr 05:10:21 05:15:15 37° 289° (WNW) 05:20:04 435.225
DANDE 28 Apr 05:18:14 05:26:07 78° 80° (E) 05:34:45 436.750
SRMSAT 28 Apr 05:18:22 05:21:23 14° 183° (S) 05:24:24 437.500
KKS-1 28 Apr 05:22:36 05:23:47 11° 271° (W) 05:24:40 437.445
AO-7 28 Apr 05:53:51 06:02:09 68° 104° (ESE) 06:10:28 29.400- 29.500
HORYU 2 28 Apr 05:57:45 06:02:08 51° 286° (WNW) 06:06:27 437.375
M-CUBED/EXP-1 PRIME 28 Apr 05:59:25 06:02:06 16° 62° (ENE) 06:05:00 437.505
CUSAT 1 28 Apr 06:04:34 06:12:01 44° 268° (W) 06:19:39 437.405
MOZHAYETS 4 28 Apr 06:04:54 06:09:29 61° 260° (W) 06:14:06
GONETS M04 28 Apr 06:07:32 06:15:22 36° 273° (W) 06:22:58
CUBESAT XI-V 28 Apr 06:15:06 06:16:48 12° 66° (ENE) 06:18:45 437.345
JAS-2 28 Apr 06:20:28 06:26:34 64° 287° (WNW) 06:31:59 435.910
AUBIESAT-1 28 Apr 06:37:29 06:41:42 32° 66° (ENE) 06:45:58 437.475
Cosmos 2499 28 Apr 06:55:21 07:03:04 89° 82° (E) 07:10:14 435.465 / 435.565
DANDE 28 Apr 07:03:03 07:08:56 22° 273° (W) 07:14:44 436.750
PRISM 28 Apr 07:11:10 07:14:42 28° 71° (ENE) 07:18:18 437.425
STRAND 1 28 Apr 07:25:03 07:29:36 35° 71° (ENE) 07:34:14 437.568
M-CUBED/EXP-1 PRIME 28 Apr 07:31:45 07:36:30 61° 255° (WSW) 07:41:18 437.505
CUTE-I 28 Apr 07:34:54 07:39:39 33° 96° (E) 07:44:28 437.470
Cubesat XI-IV 28 Apr 07:45:11 07:50:14 43° 98° (E) 07:55:18 437.490
AO-7 28 Apr 07:47:45 07:54:23 26° 301° (WNW) 08:00:46 29.400- 29.500
CUBESAT XI-V 28 Apr 07:49:13 07:53:48 62° 260° (W) 07:58:23 437.345
